Retour au catalogue

DELTA 1 DEB

ActifSSO
NORAD 12168·DEBRIS·🇺🇸 United States

Lancé Mar 5, 1978 depuis Vandenberg Space Force Base

Loading…

Prochains Passages (prochaines 24 heures)

TLE

FraisSource: Space-Track

Époque: Sep 14, 2026, 10:32 UTC

1 12168U 78026H   26257.43906916  .00000055  00000-0  65428-4 0  9990
2 12168  98.7288  67.1906 0172095 280.6599  77.5225 13.94101465313193

Suivez DELTA 1 DEB en temps réel avec AllMySat

Download on the App Store